User: anonymous   Login
Location: Cluj-Napoca
(46.7712°N, 23.6236°E)
Time: 00:08:52
(UTC+02:00)
Language:

STARS - Orbit

View from above orbital plane
View from above orbital plane
View from above satellite
View from above satellite

Ground track
Ground track

The orbit data is extracted from the following two-line orbital elements,

1 33498U 09002G   21338.90521133  .00000461  00000-0  69008-4 0  9997
2 33498  98.1899 222.4021 0011274 151.9329 208.2492 14.79504959692660
Epoch (UTC): 04 December 2021 21:43:30
Eccentricity: 0.0011274
inclination: 98.1899°
perigee height: 623 km
apogee height: 639 km
right ascension of ascending node: 222.4021°
argument of perigee: 151.9329°
revolutions per day: 14.79504959
mean anomaly at epoch: 208.2492°
orbit number at epoch: 69266

The dashed part of the orbit path shows where the satellite is in the earth's shadow,  

DLR